Location: Ertinghausen
(51.6624°N, 9.7874°E)
Time: 10:38:50
(UTC+00:00)

BREEZE-M DEB (TANK) - Pass Details

Date: 23 May 2024
Orbit: 289 x 16912 km, 49.4° (Epoch: 18 June)

Event Time Altitude Azimuth Distance (km) Brightness Sun altitude
Exits shadow 00:06:14 33° 192° (SSW) 1,049 3.7 -16.9°
Drops below altitude 10° 00:12:29 10° 132° (SE) 3,649 6.7 -16.7°
Sets 00:18:39 0° 126° (SE) 6,393 8.0 -16.5°
